When you browse on this site, cookies collect data to enhance your experience and personalize the content and advertising you see.
Visit our Privacy Policy to learn more. By continuing to use the site, you agree to this use of cookies and data.
  • In Hungary
  • List of Countries
  • For 7 days
  • Water Temperature
  • Satellite Maps
  • Weather Map
  • News
  • Weather Widgets
  • user-avatar
    Login

    Hourly Weather Kalmykovo

    Today, 18 November, Sunday

    Time Temperature Precipitation Wind Pressure Humidity
    00:00 -4°C° 0 mm 3 mps 756 mmHg 86%
    01:00 -4°C° 0 mm 4 mps 756 mmHg 87%
    02:00 -4°C° 0.1 mm 4 mps 756 mmHg 85%
    03:00 -4°C° 0.1 mm 4 mps 756 mmHg 83%
    04:00 -4°C° 0 mm 4 mps 755 mmHg 76%
    05:00 -4°C° 0.1 mm 4 mps 755 mmHg 76%
    06:00 -4°C° 0.1 mm 4 mps 755 mmHg 76%
    07:00 -4°C° 0.1 mm 4 mps 755 mmHg 76%
    08:00 -4°C° 0.1 mm 4 mps 755 mmHg 77%
    09:00 -3°C° 0.1 mm 4 mps 755 mmHg 79%
    10:00 -3°C° 0 mm 4 mps 755 mmHg 81%
    11:00 -3°C° 0.1 mm 4 mps 755 mmHg 81%
    12:00 -3°C° 0.1 mm 4 mps 755 mmHg 80%
    13:00 -3°C° 0.1 mm 4 mps 755 mmHg 79%
    14:00 -3°C° 0 mm 4 mps 755 mmHg 78%
    15:00 -2°C° 0 mm 3 mps 756 mmHg 76%
    16:00 -2°C° 0 mm 3 mps 756 mmHg 74%
    17:00 -2°C° 0 mm 3 mps 756 mmHg 73%
    18:00 -2°C° 0 mm 3 mps 756 mmHg 71%
    19:00 -2°C° 0 mm 3 mps 756 mmHg 69%
    20:00 -2°C° 0 mm 3 mps 756 mmHg 70%
    21:00 -2°C° 0 mm 3 mps 757 mmHg 70%
    22:00 -2°C° 0 mm 3 mps 757 mmHg 71%
    23:00 -2°C° 0.1 mm 3 mps 757 mmHg 74%

    Tomorrow, 19 November, Monday

    Time Temperature Precipitation Wind Pressure Humidity
    00:00 -4°C° 0.1 mm 3 mps 757 mmHg 77%
    01:00 -4°C° 0.1 mm 3 mps 757 mmHg 80%
    02:00 -4°C° 0 mm 3 mps 757 mmHg 82%
    03:00 -3°C° 0 mm 2 mps 757 mmHg 84%
    04:00 -3°C° 0 mm 2 mps 758 mmHg 85%
    05:00 -3°C° 0 mm 2 mps 758 mmHg 86%
    06:00 -3°C° 0 mm 2 mps 758 mmHg 87%
    07:00 -2°C° 0 mm 2 mps 758 mmHg 89%
    08:00 -2°C° 0 mm 2 mps 758 mmHg 89%
    09:00 -2°C° 0 mm 2 mps 758 mmHg 89%
    10:00 -2°C° 0 mm 2 mps 759 mmHg 89%
    11:00 -2°C° 0 mm 2 mps 759 mmHg 88%
    12:00 -1°C° 0 mm 2 mps 759 mmHg 88%
    13:00 -1°C° 0 mm 2 mps 759 mmHg 88%
    14:00 -1°C° 0 mm 2 mps 759 mmHg 89%
    15:00 -1°C° 0 mm 2 mps 759 mmHg 91%
    16:00 -2°C° 0 mm 2 mps 759 mmHg 93%
    17:00 -2°C° 0.1 mm 2 mps 759 mmHg 94%
    18:00 -2°C° 0.1 mm 2 mps 759 mmHg 95%
    19:00 0°C° 0.1 mm 1 mps 759 mmHg 95%
    20:00 0°C° 0.1 mm 1 mps 759 mmHg 95%
    21:00 0°C° 0.1 mm 1 mps 759 mmHg 95%
    22:00 0°C° 0.1 mm 1 mps 759 mmHg 95%
    23:00 0°C° 0 mm 1 mps 758 mmHg 95%

    Day after tomorrow, 20 November, Tuesday

    Time Temperature Precipitation Wind Pressure Humidity
    00:00 0°C° 0 mm 1 mps 758 mmHg 95%
    01:00 0°C° 0 mm 1 mps 758 mmHg 95%
    02:00 0°C° 0.1 mm 1 mps 758 mmHg 96%
    03:00 0°C° 0.1 mm 1 mps 758 mmHg 96%
    04:00 0°C° 0.1 mm 1 mps 758 mmHg 96%
    05:00 0°C° 0 mm 1 mps 758 mmHg 96%
    06:00 0°C° 0 mm 1 mps 758 mmHg 96%
    07:00 0°C° 0 mm 1 mps 758 mmHg 96%
    08:00 0°C° 0 mm 1 mps 758 mmHg 95%
    09:00 0°C° 0 mm 1 mps 758 mmHg 93%
    10:00 0°C° 0 mm 1 mps 758 mmHg 92%
    11:00 0°C° 0 mm 1 mps 757 mmHg 91%
    12:00 0°C° 0 mm 1 mps 757 mmHg 90%
    13:00 0°C° 0 mm 1 mps 757 mmHg 89%
    14:00 0°C° 0 mm 1 mps 757 mmHg 89%
    15:00 0°C° 0 mm 1 mps 757 mmHg 90%
    16:00 0°C° 0 mm 1 mps 756 mmHg 91%
    17:00 -3°C° 0 mm 2 mps 756 mmHg 90%
    18:00 -3°C° 0 mm 2 mps 756 mmHg 90%
    19:00 -3°C° 0 mm 2 mps 756 mmHg 89%
    20:00 -3°C° 0 mm 2 mps 755 mmHg 89%
    21:00 -5°C° 0 mm 3 mps 755 mmHg 89%
    22:00 -5°C° 0 mm 3 mps 754 mmHg 89%
    23:00 -5°C° 0 mm 3 mps 754 mmHg 88%

    21 November, Wednesday

    Time Temperature Precipitation Wind Pressure Humidity
    00:00 -5°C° 0 mm 4 mps 754 mmHg 87%
    01:00 -5°C° 0 mm 4 mps 753 mmHg 86%
    02:00 -6°C° 0.1 mm 5 mps 753 mmHg 87%
    03:00 -6°C° 0.1 mm 5 mps 753 mmHg 88%
    04:00 -6°C° 0.1 mm 5 mps 752 mmHg 89%
    05:00 -6°C° 0.3 mm 5 mps 752 mmHg 89%
    06:00 -6°C° 0.3 mm 5 mps 751 mmHg 90%
    07:00 -6°C° 0.3 mm 5 mps 751 mmHg 90%
    08:00 -6°C° 0.3 mm 5 mps 750 mmHg 89%
    09:00 -6°C° 0.3 mm 5 mps 750 mmHg 89%
    10:00 -5°C° 0.3 mm 5 mps 750 mmHg 88%
    11:00 -5°C° 0.3 mm 5 mps 750 mmHg 88%
    12:00 -5°C° 0.3 mm 5 mps 749 mmHg 88%
    13:00 -5°C° 0.3 mm 5 mps 749 mmHg 88%
    14:00 -5°C° 0.1 mm 5 mps 749 mmHg 88%
    15:00 -4°C° 0.1 mm 4 mps 749 mmHg 88%
    16:00 -4°C° 0.1 mm 4 mps 749 mmHg 88%
    17:00 -4°C° 0 mm 4 mps 749 mmHg 89%
    18:00 -4°C° 0 mm 4 mps 749 mmHg 90%
    19:00 -4°C° 0 mm 4 mps 749 mmHg 90%
    20:00 -5°C° 0 mm 3 mps 749 mmHg 91%
    21:00 -5°C° 0 mm 3 mps 749 mmHg 92%
    22:00 -5°C° 0 mm 3 mps 749 mmHg 92%
    23:00 -5°C° 0.1 mm 3 mps 749 mmHg 92%

    22 November, Thursday

    Time Temperature Precipitation Wind Pressure Humidity
    00:00 -6°C° 0.1 mm 3 mps 748 mmHg 92%
    01:00 -6°C° 0.1 mm 3 mps 748 mmHg 91%
    02:00 -6°C° 0.1 mm 3 mps 748 mmHg 91%
    03:00 -6°C° 0.1 mm 3 mps 747 mmHg 91%
    04:00 -7°C° 0.1 mm 3 mps 747 mmHg 90%
    05:00 -7°C° 0 mm 3 mps 746 mmHg 91%
    06:00 -9°C° 0 mm 4 mps 746 mmHg 92%
    07:00 -9°C° 0 mm 4 mps 745 mmHg 93%
    08:00 -10°C° 0 mm 5 mps 745 mmHg 90%
    09:00 -10°C° 0 mm 5 mps 744 mmHg 88%
    10:00 -9°C° 0 mm 6 mps 744 mmHg 86%
    11:00 -9°C° 0.1 mm 6 mps 743 mmHg 85%
    12:00 -9°C° 0.1 mm 7 mps 742 mmHg 84%
    13:00 -8°C° 0.1 mm 7 mps 741 mmHg 83%
    14:00 -8°C° 0.4 mm 7 mps 740 mmHg 86%
    15:00 -8°C° 0.4 mm 7 mps 739 mmHg 88%
    16:00 -8°C° 0.4 mm 7 mps 738 mmHg 90%
    17:00 -8°C° 0.5 mm 7 mps 737 mmHg 90%
    18:00 -7°C° 0.5 mm 7 mps 737 mmHg 89%
    19:00 -7°C° 0.5 mm 7 mps 736 mmHg 89%
    20:00 -8°C° 0.2 mm 8 mps 737 mmHg 86%
    21:00 -10°C° 0.2 mm 9 mps 737 mmHg 84%
    22:00 -12°C° 0.2 mm 9 mps 738 mmHg 81%
    23:00 -12°C° 0.1 mm 9 mps 739 mmHg 76%

    23 November, Friday

    Time Temperature Precipitation Wind Pressure Humidity
    00:00 -14°C° 0.1 mm 9 mps 740 mmHg 72%
    01:00 -13°C° 0.1 mm 8 mps 741 mmHg 67%
    02:00 -15°C° 0 mm 8 mps 742 mmHg 71%
    03:00 -15°C° 0 mm 7 mps 743 mmHg 76%
    04:00 -15°C° 0 mm 6 mps 744 mmHg 80%
    05:00 -14°C° 0 mm 5 mps 744 mmHg 84%
    06:00 -14°C° 0 mm 4 mps 745 mmHg 87%
    07:00 -14°C° 0 mm 4 mps 745 mmHg 91%
    08:00 -12°C° 0.1 mm 4 mps 746 mmHg 88%
    09:00 -13°C° 0.1 mm 5 mps 747 mmHg 86%
    10:00 -12°C° 0.1 mm 5 mps 747 mmHg 83%
    11:00 -12°C° 0 mm 5 mps 747 mmHg 81%
    12:00 -12°C° 0 mm 6 mps 748 mmHg 79%
    13:00 -12°C° 0 mm 6 mps 748 mmHg 77%
    14:00 -12°C° 0 mm 6 mps 748 mmHg 79%
    15:00 -12°C° 0 mm 6 mps 748 mmHg 80%
    16:00 -11°C° 0 mm 6 mps 749 mmHg 82%
    17:00 -11°C° 0 mm 6 mps 749 mmHg 83%
    18:00 -11°C° 0 mm 6 mps 749 mmHg 84%
    19:00 -11°C° 0 mm 6 mps 749 mmHg 85%
    20:00 -11°C° 0 mm 6 mps 750 mmHg 86%
    21:00 -11°C° 0 mm 6 mps 750 mmHg 87%
    22:00 -11°C° 0 mm 6 mps 750 mmHg 88%
    23:00 -11°C° 0 mm 6 mps 750 mmHg 89%
    Show more